Theta_e
328 326 330 337 330 317 320 318 317 318 318 319 318 317 315 316 316 313 321 322 321 321 321 320 320 321 319 316 316 316 315 315 317 313 310 307 307 311 313 315 319 325 325 320 319 315 316 317 334
328 327 333 333 326 317 317 314 317 316 318 319 318 318 318 317 320 320 321 321 321 319 317 314 316 314 314 315 316 316 318 320 318 312 311 310 307 310 313 313 316 320 325 326 326 321 318 316 327
329 331 334 326 322 325 317 314 315 317 318 319 317 318 319 319 320 320 320 320 317 315 314 314 314 315 316 317 318 320 320 318 315 314 314 314 311 308 313 312 314 316 323 329 327 326 327 317 321
329 332 329 327 328 321 315 314 316 316 317 317 317 319 320 320 320 320 317 316 315 315 315 315 315 316 319 319 320 318 317 315 315 322 322 322 321 316 316 315 314 313 317 324 327 326 327 323 317
331 330 325 326 325 315 312 315 316 315 316 316 318 319 320 320 318 316 316 316 316 316 316 316 317 319 315 314 314 315 318 319 320 323 323 323 322 321 315 314 312 311 312 324 324 328 324 326 319
328 327 327 328 326 317 315 316 316 316 316 317 319 319 319 318 317 317 316 316 316 316 315 313 313 314 316 318 319 320 320 319 320 320 321 320 321 319 316 320 320 312 309 316 323 327 327 324 322
326 324 327 327 326 315 316 317 315 316 315 317 319 317 318 317 317 316 316 315 315 315 314 316 318 318 318 320 320 319 318 319 318 319 319 320 319 318 322 321 320 319 310 316 325 325 328 325 319
328 324 324 319 317 315 316 317 317 317 316 318 319 316 316 317 316 316 315 315 314 315 316 317 316 319 321 321 319 321 322 321 321 320 321 321 321 322 322 318 321 319 316 317 323 324 325 324 320
327 322 323 323 316 315 316 315 317 318 318 318 318 318 317 317 316 315 315 314 313 313 314 315 318 320 320 321 321 321 321 320 321 321 320 319 319 320 320 321 320 320 316 316 322 323 324 324 322
323 321 323 320 314 315 316 315 317 318 317 316 317 317 316 316 315 315 314 312 311 312 312 313 318 321 321 321 319 319 319 319 318 318 318 317 317 318 318 319 319 319 316 319 320 322 324 323 322
321 323 320 322 320 318 316 315 317 317 317 317 317 316 315 315 315 314 313 311 313 313 313 319 321 321 321 318 318 318 318 318 319 319 318 317 316 316 316 318 320 317 318 321 321 322 323 322 321
322 322 322 322 322 317 315 316 318 318 319 319 318 317 316 315 315 314 313 313 315 313 319 321 320 321 321 319 319 319 319 319 320 319 318 318 320 317 317 317 316 316 320 321 321 322 321 321 322
321 320 319 319 318 318 318 317 317 318 319 319 317 316 315 315 314 314 315 315 314 311 314 322 321 321 320 319 320 321 320 320 319 319 320 320 318 317 317 318 318 320 321 322 322 322 322 322 322
323 319 318 317 317 317 316 317 318 319 319 318 317 316 315 315 314 314 315 315 314 312 320 321 321 320 320 320 321 321 321 320 319 318 320 321 320 319 319 320 321 322 322 322 322 321 321 322 323
319 319 317 318 316 316 317 316 316 318 318 317 316 315 315 315 315 314 316 316 312 320 322 321 322 321 320 321 321 320 320 319 317 318 320 320 321 321 321 321 321 321 320 321 321 321 322 323 323
319 316 317 317 316 317 316 316 316 317 317 316 315 315 315 315 315 315 317 317 311 322 321 321 321 321 321 321 320 321 321 319 318 318 320 320 320 321 321 321 320 322 321 322 322 322 323 324 324
316 320 318 318 316 316 315 316 316 317 317 316 315 314 315 315 315 316 317 317 312 320 319 319 322 321 322 323 321 321 321 320 320 320 320 320 320 321 323 323 321 321 322 322 323 324 323 330 326
320 319 318 318 318 315 315 314 314 317 317 317 315 314 315 315 315 316 317 316 311 315 317 319 322 322 322 323 323 322 322 322 322 322 322 322 322 323 324 323 322 323 323 324 324 324 327 326 330
319 319 319 319 318 317 316 315 317 316 316 316 315 314 315 315 315 316 318 316 315 314 316 317 322 323 324 322 322 322 321 322 322 321 322 322 322 321 324 323 323 322 325 325 324 326 328 330 330
317 318 318 317 317 316 317 316 315 315 316 316 316 314 315 315 315 317 318 316 317 314 315 317 321 321 324 322 322 324 324 324 324 323 323 323 325 323 323 325 324 325 326 326 326 326 328 331 329
318 319 318 318 318 315 316 315 316 315 316 317 316 316 315 315 315 317 318 317 317 317 313 317 319 319 322 324 324 325 325 325 324 321 325 326 324 325 326 326 326 327 328 327 326 328 329 329 329
320 318 319 318 318 317 315 316 315 316 316 316 315 315 315 315 315 317 318 318 315 319 314 317 319 317 322 326 325 323 326 324 325 325 326 326 326 326 325 324 327 327 328 328 328 329 328 329 329
320 319 318 318 317 316 317 315 315 318 319 316 315 314 315 315 316 317 317 318 316 320 317 317 320 318 323 325 325 326 326 326 326 323 323 325 326 325 325 325 327 327 328 328 322 330 328 329 330
319 318 315 315 314 315 315 316 316 316 318 318 316 315 315 315 316 317 317 317 319 321 320 317 321 319 320 323 323 323 322 323 327 327 324 324 324 324 326 326 326 326 328 328 328 329 329 329 329
316 314 316 316 317 318 317 317 317 318 317 317 318 315 316 315 316 316 318 318 319 320 320 319 317 318 317 319 323 322 321 321 325 327 327 325 327 326 326 322 324 326 327 327 326 325 328 328 328
314 314 315 317 315 315 318 321 320 318 321 321 321 318 315 315 316 316 317 318 318 320 318 321 320 318 319 317 318 319 321 321 324 326 326 328 327 324 325 324 325 328 327 326 326 326 327 328 328
317 315 314 315 317 318 318 320 321 324 322 319 316 315 315 316 316 316 317 318 318 320 319 321 321 319 320 319 318 317 319 319 321 323 325 328 328 328 328 328 328 328 328 328 326 327 327 328 328
317 315 317 313 318 319 318 322 323 321 324 321 316 314 315 316 316 316 317 318 318 321 320 321 322 320 318 320 318 317 315 317 319 321 324 326 323 323 327 327 327 328 328 328 328 329 329 329 328
318 318 318 313 314 316 316 320 318 324 325 324 319 316 317 317 317 317 316 318 318 320 321 320 322 318 312 318 316 317 315 314 318 318 320 322 323 324 323 326 327 327 327 328 327 327 327 328 328
318 317 319 318 318 319 318 320 320 324 325 326 323 318 317 317 318 318 315 317 318 320 319 320 321 318 310 309 311 314 316 317 315 318 318 319 319 321 321 323 326 327 326 327 327 321 317 321 325
Wind_Speed
6 4 1 1 3 4 3 6 1 2 2 2 3 4 6 5 6 5 6 11 11 7 9 13 17 16 15 14 15 17 19 22 22 22 21 19 16 15 14 14 15 13 13 14 14 15 15 13 12
3 2 2 2 4 2 5 4 6 6 3 2 4 6 2 2 3 3 6 6 5 8 12 12 11 11 13 14 14 18 20 20 23 22 22 21 18 18 18 15 16 15 13 13 13 15 15 15 13
4 2 2 3 3 4 5 6 7 4 7 6 3 1 2 2 3 2 4 4 8 11 12 10 9 12 13 14 16 18 19 21 23 25 24 22 22 20 20 18 16 16 15 12 14 13 13 15 15
2 1 3 3 5 6 6 5 5 3 6 8 5 2 2 4 2 1 3 5 10 13 12 11 12 13 13 15 18 20 21 23 24 22 23 21 19 19 21 20 19 17 16 14 14 15 15 16 16
3 1 3 1 5 4 5 5 12 6 2 5 8 3 3 4 2 3 5 6 9 11 13 13 12 12 15 17 18 21 24 26 24 22 22 23 20 19 19 21 22 21 19 15 16 16 17 16 16
2 2 3 3 6 5 5 9 10 8 10 4 4 6 3 5 4 6 7 7 9 10 9 8 10 12 14 17 20 22 25 27 27 26 24 25 22 20 19 18 18 21 22 17 16 18 17 17 16
4 4 4 4 5 6 5 10 7 10 5 5 7 5 4 8 8 7 6 8 10 10 11 11 12 15 17 18 21 26 29 29 27 27 26 27 24 24 23 20 16 18 19 17 18 21 20 19 18
4 5 3 4 5 7 5 10 5 11 7 6 8 5 5 12 9 7 7 9 11 12 12 14 15 16 18 21 26 27 24 25 28 27 22 24 24 25 26 22 21 18 18 19 19 22 23 21 19
5 3 3 5 3 7 4 3 4 7 11 8 9 5 6 12 10 7 8 10 11 12 13 15 16 16 20 22 22 22 22 20 20 20 25 29 30 28 24 24 21 20 19 21 20 22 24 21 20
5 3 7 7 6 6 5 7 12 5 6 3 8 9 13 11 9 7 10 12 12 13 15 16 16 16 18 20 21 20 18 15 11 15 20 22 26 28 30 29 26 25 19 19 22 22 24 22 21
6 5 7 12 15 14 7 5 10 7 4 12 17 19 16 12 8 7 10 10 12 15 15 14 15 14 17 16 18 17 12 10 12 13 10 11 14 17 25 27 24 21 19 20 21 24 25 22 21
3 13 10 12 17 8 7 7 6 16 11 12 15 15 15 12 7 6 7 9 11 15 14 16 14 14 17 15 15 15 10 8 10 8 6 5 4 6 11 15 16 17 17 18 19 22 23 22 22
5 5 3 7 11 13 9 8 5 18 13 8 16 17 14 11 8 4 5 10 13 15 13 15 14 14 15 13 15 12 11 9 6 4 4 4 3 5 8 11 12 13 15 18 20 23 22 21 21
7 6 2 2 4 6 7 2 5 11 12 15 19 19 16 11 6 1 4 9 13 14 13 14 14 14 15 11 13 11 9 8 5 1 2 3 5 5 5 8 11 13 15 18 20 21 21 22 22
2 3 5 2 4 3 4 3 9 11 18 19 22 19 16 11 6 2 4 9 12 12 14 15 14 15 13 11 11 10 8 6 3 2 2 4 4 4 5 8 11 13 15 17 18 18 19 22 23
4 5 3 4 5 3 8 10 6 15 23 23 23 20 17 13 6 1 3 8 11 10 14 16 15 14 13 11 10 8 8 5 4 1 2 4 4 4 6 9 11 13 15 17 19 20 21 21 24
7 3 4 6 9 2 5 9 3 13 28 24 23 20 17 13 9 3 1 6 10 9 14 17 15 15 12 12 9 8 8 6 3 2 3 7 6 6 8 9 10 13 15 17 18 20 21 25 27
4 3 3 4 3 4 3 13 6 9 26 24 24 22 19 15 9 4 1 4 9 8 12 16 15 15 13 11 10 8 8 6 5 3 3 1 3 6 8 11 12 13 16 17 20 22 26 27 31
4 3 5 4 5 5 7 10 16 11 19 15 23 25 22 17 11 7 3 1 6 10 8 13 13 17 16 11 10 10 7 7 5 5 4 5 4 6 9 12 14 13 15 20 24 29 31 33 34
3 3 5 6 3 6 8 10 9 8 13 27 29 28 25 20 15 10 6 1 3 9 5 10 10 14 17 12 10 11 11 9 6 9 11 12 10 14 8 10 13 15 21 25 28 32 35 35 34
5 3 5 7 1 3 1 7 5 5 7 13 21 27 27 24 18 13 9 4 0 7 6 8 9 12 14 12 10 12 13 12 9 11 11 12 16 16 12 16 12 12 21 25 31 32 37 38 36
4 8 5 4 2 4 4 5 6 5 6 7 19 29 30 26 19 14 11 6 2 5 6 6 9 10 10 13 12 15 16 18 14 13 17 18 18 20 20 15 8 19 30 29 30 39 35 39 43
10 4 6 3 4 2 2 2 6 2 7 10 17 29 32 28 22 17 13 7 4 5 5 3 7 9 8 12 15 16 14 15 14 12 8 11 14 14 15 16 19 17 19 28 30 29 37 38 39
3 3 6 4 4 1 7 7 5 5 8 7 5 27 34 31 24 16 12 10 6 6 3 2 5 6 6 8 12 14 15 15 15 14 10 4 11 12 7 11 19 17 15 19 24 20 22 27 30
5 6 4 4 3 5 3 3 8 9 9 9 9 26 35 32 27 21 19 15 10 6 5 1 1 4 4 6 8 12 12 12 11 10 10 6 8 13 15 16 17 18 17 21 27 20 22 22 23
7 9 5 6 3 5 3 5 6 6 7 13 13 19 33 34 29 23 19 16 12 8 6 5 1 1 2 4 7 10 9 9 12 14 13 13 17 18 16 14 15 16 20 18 20 14 14 18 18
5 4 6 4 1 2 3 7 10 3 5 6 10 20 32 36 31 25 20 18 15 12 6 5 4 1 2 1 3 6 6 6 8 12 13 14 19 15 16 14 14 15 21 19 20 16 18 13 14
9 7 2 2 2 4 4 4 6 8 5 4 6 18 31 35 31 25 22 20 17 13 8 6 6 3 4 2 0 3 4 5 6 8 11 15 15 14 13 14 13 11 14 14 18 17 12 17 19
3 3 4 4 4 5 3 6 6 4 9 8 9 23 32 38 34 27 23 20 17 15 12 9 7 4 4 5 3 1 4 5 6 6 9 10 11 11 14 15 16 16 16 19 23 24 22 20 21
7 10 9 5 5 3 4 7 5 6 9 8 7 19 27 35 33 27 24 21 20 17 15 10 9 6 3 4 4 4 3 4 8 8 8 8 10 12 11 14 14 14 14 16 19 22 20 20 21
Wind_Direction
128 129 65 327 45 61 274 265 277 246 300 213 151 173 188 150 164 213 173 185 220 248 243 264 264 256 272 293 294 296 302 303 306 310 307 303 281 262 242 243 250 247 247 246 245 234 230 226 219
151 169 309 104 83 42 273 249 225 218 214 198 131 131 141 216 194 246 202 225 261 290 297 287 269 286 288 283 281 291 292 291 297 301 302 299 291 262 248 243 244 252 244 250 247 238 231 226 217
179 234 342 83 107 201 229 229 210 247 231 199 166 300 211 194 196 237 217 284 294 311 317 309 291 292 284 283 281 282 282 288 294 296 294 287 285 260 248 245 240 247 252 239 248 243 236 224 220
190 110 74 95 222 261 219 249 198 243 222 222 206 182 203 204 138 195 309 299 312 327 317 302 290 277 271 277 273 280 281 285 289 280 277 271 265 252 244 243 245 244 249 247 228 245 233 228 222
197 70 49 8 251 248 256 259 181 188 218 217 195 205 207 159 158 224 272 283 301 298 293 290 269 260 279 280 284 287 288 291 279 269 266 265 261 249 244 246 247 246 247 252 219 234 234 224 221
123 86 44 304 277 279 259 214 182 192 212 210 167 150 203 183 200 237 281 285 296 289 293 287 282 287 295 297 295 291 292 287 277 273 263 269 257 241 241 251 254 246 243 243 236 224 234 222 220
128 99 213 246 272 300 236 202 199 198 209 224 167 143 211 200 224 253 260 294 299 300 302 303 304 305 302 293 287 289 291 288 278 275 270 265 253 245 241 249 247 249 242 232 239 216 220 216 217
201 104 139 241 254 266 227 187 246 183 209 179 186 198 218 206 212 225 275 294 304 306 309 312 311 306 295 295 297 295 292 286 277 272 266 257 256 251 245 244 245 262 241 228 238 217 216 213 212
191 74 216 247 200 249 212 168 208 201 161 189 196 237 236 188 201 238 276 300 305 312 317 321 317 306 303 307 309 302 295 293 279 271 265 262 261 255 249 240 243 256 244 226 223 221 210 209 210
147 135 223 200 200 237 218 195 177 188 158 162 181 187 171 186 206 248 294 315 326 333 337 329 318 314 320 320 320 314 304 295 290 279 275 269 262 254 248 248 248 253 232 227 220 214 205 205 207
189 201 209 236 235 242 214 214 184 166 252 214 203 175 179 196 217 273 310 329 335 343 340 336 330 320 332 332 334 334 322 307 301 303 295 279 263 249 234 238 234 223 218 216 215 202 200 202 202
177 241 230 264 235 183 190 178 203 188 230 257 231 199 190 204 230 284 327 341 346 347 351 346 337 324 327 328 336 347 339 310 311 322 318 308 261 211 202 207 208 211 213 211 202 197 194 198 196
193 261 308 247 191 204 203 205 197 217 249 233 193 192 199 209 227 267 344 348 353 351 352 357 344 342 336 332 337 338 334 331 322 335 25 36 69 151 172 179 189 195 203 197 194 192 193 194 192
225 218 64 153 190 209 169 201 183 236 213 186 195 200 208 211 214 265 339 356 357 357 5 355 346 349 343 344 348 350 343 341 328 291 54 66 93 116 149 174 182 190 187 187 191 191 191 191 192
97 105 36 263 167 243 139 298 235 225 190 194 198 202 200 199 200 302 345 4 3 7 10 1 358 355 350 350 355 356 1 5 19 110 118 134 135 158 184 188 188 178 176 179 185 189 191 192 190
88 53 96 279 161 249 159 263 266 222 193 201 198 198 198 198 209 270 349 5 11 15 12 3 3 3 1 1 360 357 12 3 14 40 181 207 213 199 212 192 183 182 178 181 185 186 190 186 182
14 221 209 310 207 135 177 265 277 211 200 204 199 200 199 198 205 212 332 9 18 20 15 4 360 3 3 6 359 15 22 15 357 324 263 255 256 238 207 196 186 181 183 184 187 181 180 171 174
233 227 228 242 241 186 223 265 257 228 204 207 201 200 201 205 213 201 205 12 24 20 16 10 13 9 3 359 4 17 29 27 21 9 335 297 235 203 188 182 180 170 188 182 178 173 168 171 173
195 196 247 266 242 178 235 252 273 220 213 207 206 201 203 206 203 200 201 8 28 21 15 10 20 23 18 16 25 45 36 18 343 14 27 349 223 188 180 186 187 186 176 176 169 169 162 158 172
160 222 264 274 278 163 271 271 263 189 224 214 211 204 205 198 196 201 200 217 27 28 27 11 20 18 23 25 36 44 25 34 29 52 67 55 90 146 155 174 185 171 160 160 165 168 158 163 170
198 174 233 239 319 239 151 307 301 268 242 221 226 215 210 204 200 199 200 206 76 39 40 25 32 19 27 32 45 53 36 52 62 72 76 69 96 94 99 120 140 150 153 163 164 161 164 165 168
254 217 229 267 47 271 133 271 286 284 278 228 215 210 208 201 202 202 197 201 166 62 48 45 37 22 40 40 50 71 50 59 76 89 79 80 78 82 83 122 151 156 163 151 163 166 172 173 159
232 143 196 228 205 109 270 72 262 352 284 259 218 210 206 201 198 199 195 191 148 109 56 86 35 33 59 56 55 59 66 61 66 84 80 75 75 87 88 77 91 129 141 158 158 149 168 173 160
166 107 49 55 97 60 235 160 278 221 217 260 193 206 206 196 195 197 183 186 161 160 93 133 34 27 57 61 55 55 55 60 74 81 104 109 105 94 73 90 105 109 114 143 152 160 163 164 179
96 71 338 338 6 223 108 101 235 255 244 231 230 199 201 192 192 191 187 190 184 171 174 154 9 15 49 65 67 61 60 59 72 73 80 146 112 136 122 118 119 121 120 127 129 120 159 156 180
181 155 158 230 231 260 139 231 250 229 306 295 273 218 194 187 192 194 190 190 189 175 169 211 224 34 49 67 68 59 70 66 66 63 77 100 128 123 134 146 109 122 134 140 143 146 121 123 155
177 153 197 138 154 62 243 287 311 268 7 22 132 172 185 186 191 194 190 193 193 186 166 213 231 310 189 61 32 42 78 91 77 76 68 86 123 125 126 137 145 130 128 133 168 160 159 135 120
166 160 112 18 194 228 278 286 240 300 304 174 162 178 186 187 191 195 192 194 196 194 192 225 237 274 215 221 79 46 99 132 106 94 96 95 93 101 105 117 110 120 127 145 151 146 153 162 144
124 162 58 124 148 187 235 257 218 224 251 233 196 198 192 188 192 195 191 193 199 201 204 225 235 251 213 218 214 116 119 142 140 122 116 110 114 114 111 112 110 112 100 110 115 116 112 125 135
208 189 171 163 229 208 185 261 242 262 272 215 200 212 201 198 192 194 192 190 198 202 197 209 219 226 198 189 193 204 178 150 164 145 134 117 115 110 107 117 122 125 118 118 125 119 119 122 130